TOURFACTS.DK  
Stats and Facts from Tour de France.

Tour de France 2018 starts in 169 days
  Riders   Stages   Teams   Summits   Yearly  


 
Search by year

 2017 - St.21:
 14824 starters.
  5132 different riders.
  635 teams.
  2232 stages.
  454 restdays.
  439589.60 km.
  5653 abandonnees.


Top 3
GC
Christopher Froome86:20:55
Rigoberto Uran86:21:49
Romain Bardet86:23:15
Climb
Warren Barguil169 pt.
Primoz Roglic80 pt.
Thomas De Gendt64 pt.
Sprint
Michael Matthews359 pt.
André Greipel234 pt.
Edvald Boasson Hagen220 pt.
Youth
Simon Yates86:27:09
Louis Meintjes86:29:15
Emanuel Buchmann86:54:16
Facts from Tour de France 2010
  |   Stages.  |   Stage winners.  |   Days in yellow  |   Average speed.  |   Route.  |   Teams.  |   All riders.  |   Rookies.  |   Withdrawls.  |  

  |   GC.  |   Polka  |   Green  |   White  |   Summits. (In tour)  |   Summits. (Points)  |   Miscellaneous.  |  

Stage 14 on 18 - 07 - 2010
         Owning:    Andy Schleck    
Pick a stage:  Pro 1 2 3 4 5 6 7 8 9 10 11 12 13 14 15 16 17 18 19 20
  RevelAx-3-Domaines | Dist: 184.50 km.
Cat: HCol de PailhčresFRAChristophe Riblon
20 points
 
Cat: 1Ax 3 DomainesFRAChristophe Riblon
30 points
 

Average speed for all riders in stage:  35,277 km./hr.
    Place:Name:Team:Time:Km/h:
FRAChristophe RiblonFRAAg2r La Mondiale04:52:22  +  00:00:00=37,863 
RUSDenis MenchovNLDRabobank04:53:16  +  00:00:54=37,747 
ESPSamuel SanchezESPEuskaltel - Euskadi04:53:16  +  00:00:54=37,747 
4 LUXAndy SchleckDNKTeam Saxo Bank04:53:30  +  00:01:08=37,717 
5 ESPJoaquim RodriguezRUSTeam Katusha04:53:30  +  00:01:08=37,717 
6 NEDRobert GesinkNLDRabobank04:53:30  +  00:01:08=37,717 
7 ESPAlberto ContadorKAZAstana Pro Team04:53:30  +  00:01:08=37,717 
8 BELJurgen Van Den BroeckBELOmega Pharma - Lotto04:53:30  +  00:01:08=37,717 
9 ITADamiano CunegoITALampre-Farnese Vini04:54:11  +  00:01:49=37,630 
10 ESPCarlos SastreCHECervelo Test Team04:54:11  +  00:01:49=37,630 
11 USALevi LeipheimerUSATeam Radio Shack04:54:15  +  00:01:53=37,621 
12 CANRyder HesjedalUSAGarmin-Transitions04:54:22  +  00:02:00=37,606 
13 KAZAlexandre VinokourovKAZAstana Pro Team04:54:22  +  00:02:00=37,606 
14 ESPLuis León SánchezESPCaisse d´Epargne04:54:24  +  00:02:02=37,602 
15 FRAChristophe MoreauESPCaisse d´Epargne04:54:24  +  00:02:02=37,602 
16 BLRVasil KiryienkaESPCaisse d´Epargne04:54:38  +  00:02:16=37,572 
17 JPNChristopher HornerUSATeam Radio Shack04:54:48  +  00:02:26=37,551 
18 FRANicolas RocheFRAAg2r La Mondiale04:54:49  +  00:02:27=37,549 
19 SWEThomas LövkvistGBRSky Procycling04:54:52  +  00:02:30=37,542 
20 FRAJohn GadretFRAAg2r La Mondiale04:54:52  +  00:02:30=37,542 
21 ITAIvan BassoITALiquigas-Doimo04:54:52  +  00:02:30=37,542 
22 GERAndréas KlödenUSATeam Radio Shack04:54:52  +  00:02:30=37,542 
23 BLRKanstantin SivtsovUSATeam Columbia-HTC04:55:13  +  00:02:51=37,498 
24 ESPDaniel MorenoBELOmega Pharma - Lotto04:55:13  +  00:02:51=37,498 
25 FRASylvain ChavanelBELQuick Step04:55:13  +  00:02:51=37,498 
26 BELKevin De WeertBELQuick Step04:55:23  +  00:03:01=37,477 
27 FRAJulien El FarčsFRACofidis Le Credit En Ligne04:55:23  +  00:03:01=37,477 
28 CZERoman KreuzigerITALiquigas-Doimo04:55:24  +  00:03:02=37,475 
29 FRAChristophe Le MevelFRAFrancaise Des Jeux04:55:24  +  00:03:02=37,475 
30 ESPRubén PlazaESPCaisse d´Epargne04:55:38  +  00:03:16=37,445 
31 FRAAmaël MoinardFRACofidis Le Credit En Ligne04:55:55  +  00:03:33=37,409 
32 ESPEgoi MartínezESPEuskaltel - Euskadi04:56:26  +  00:04:04=37,344 
33 ESPGorka VerdugoESPEuskaltel - Euskadi04:56:26  +  00:04:04=37,344 
34 ESPCarlos BarredoBELQuick Step04:56:34  +  00:04:12=37,327 
35 ESPRafael Valls FerriESPFooton-Servetto04:57:21  +  00:04:59=37,229 
36 BELBradley WigginsGBRSky Procycling04:57:21  +  00:04:59=37,229 
37 AUSCadel EvansUSABMC Racing Team04:58:01  +  00:05:39=37,146 
38 ESPJuan Manuel GarateNLDRabobank04:58:01  +  00:05:39=37,146 
39 AUSMatthew LloydBELOmega Pharma - Lotto04:58:01  +  00:05:39=37,146 
40 BELJurgen Van De WalleBELQuick Step04:58:01  +  00:05:39=37,146 
41 FRAChristophe KernFRACofidis Le Credit En Ligne05:00:09  +  00:07:47=36,882 
42 FRARémi PauriolFRACofidis Le Credit En Ligne05:00:09  +  00:07:47=36,882 
43 FRAAnthony CharteauFRABbox Bouygues Telecom05:01:18  +  00:08:56=36,741 
44 FRAPierre RollandFRABbox Bouygues Telecom05:01:27  +  00:09:05=36,723 
45 DENChris Anker SřrensenDNKTeam Saxo Bank05:01:33  +  00:09:11=36,710 
46 FRARémy Di GrégorioFRAFrancaise Des Jeux05:01:51  +  00:09:29=36,674 
47 RUSAlexandr KolobnevRUSTeam Katusha05:03:10  +  00:10:48=36,515 
48 BELKevin SeeldraeyersBELQuick Step05:03:11  +  00:10:49=36,513 
49 ESPIvan VelascoESPEuskaltel - Euskadi05:03:22  +  00:11:00=36,490 
50 ESPDaniel NavarroKAZAstana Pro Team05:04:10  +  00:11:48=36,395 
51 RUSPavel BruttRUSTeam Katusha05:04:10  +  00:11:48=36,395 
52 FRAMathieu PergetESPCaisse d´Epargne05:04:51  +  00:12:29=36,313 
53 BELFrancis De GreefBELOmega Pharma - Lotto05:04:51  +  00:12:29=36,313 
54 UKRVolodymir GustovCHECervelo Test Team05:04:51  +  00:12:29=36,313 
55 BELJohan VansummerenUSAGarmin-Transitions05:06:13  +  00:13:51=36,151 
56 SUIJakob FuglsangDNKTeam Saxo Bank05:07:34  +  00:15:12=35,992 
57 FRAPierrick FédrigoFRABbox Bouygues Telecom05:07:36  +  00:15:14=35,988 
58 GERSebastian LangBELOmega Pharma - Lotto05:07:36  +  00:15:14=35,988 
59 GERGrischa NiermannNLDRabobank05:07:36  +  00:15:14=35,988 
60 SLOJanez BrajkovicUSATeam Radio Shack05:07:36  +  00:15:14=35,988 
61 FRAJérôme PineauBELQuick Step05:07:36  +  00:15:14=35,988 
62 AUSMichael RogersUSATeam Columbia-HTC05:07:36  +  00:15:14=35,988 
63 RUSEduard VorganovRUSTeam Katusha05:07:36  +  00:15:14=35,988 
64 FRACyril GautierFRABbox Bouygues Telecom05:07:36  +  00:15:14=35,988 
65 FRASandy CasarFRAFrancaise Des Jeux05:07:36  +  00:15:14=35,988 
66 SUIMartin ElmigerFRAAg2r La Mondiale05:07:36  +  00:15:14=35,988 
67 FRANicolas VogondyFRABbox Bouygues Telecom05:07:36  +  00:15:14=35,988 
68 ITAPaolo TiralongoKAZAstana Pro Team05:07:36  +  00:15:14=35,988 
69 WALGeraint ThomasGBRSky Procycling05:07:36  +  00:15:14=35,988 
70 USALance ArmstrongUSATeam Radio Shack05:07:36  +  00:15:14=35,988 
71 USAGeorge HincapieUSABMC Racing Team05:07:36  +  00:15:14=35,988 
72 NEDKoos MoerenhoutNLDRabobank05:07:36  +  00:15:14=35,988 
73 POLSylvester SzmydITALiquigas-Doimo05:07:36  +  00:15:14=35,988 
74 PORSergio PaulinhoUSATeam Radio Shack05:07:36  +  00:15:14=35,988 
75 SLOKristjan KorenITALiquigas-Doimo05:07:36  +  00:15:14=35,988 
76 BELSerge PauwelsGBRSky Procycling05:09:20  +  00:16:58=35,787 
77 FRAStéphane AugeFRACofidis Le Credit En Ligne05:12:09  +  00:19:47=35,464 
78 ESPJosé Joaquin RojasESPCaisse d´Epargne05:13:05  +  00:20:43=35,358 
79 GERJohannes FröhlingerDEUTeam Milram05:13:05  +  00:20:43=35,358 
80 ESPJosé Ivan GutierrezESPCaisse d´Epargne05:13:05  +  00:20:43=35,358 
81 BELMaxime MonfortUSATeam Columbia-HTC05:13:05  +  00:20:43=35,358 
82 AUTThomas RohreggerDEUTeam Milram05:13:05  +  00:20:43=35,358 
83 ESPDavid De La FuenteKAZAstana Pro Team05:13:05  +  00:20:43=35,358 
84 ESPArkaitz DuranESPFooton-Servetto05:13:05  +  00:20:43=35,358 
85 ESPAitor PerezESPFooton-Servetto05:13:05  +  00:20:43=35,358 
86 ITAFrancesco GavazziITALampre-Farnese Vini05:13:05  +  00:20:43=35,358 
87 USADavid ZabriskieUSAGarmin-Transitions05:13:05  +  00:20:43=35,358 
88 FRAMatthieu SprickFRABbox Bouygues Telecom05:13:05  +  00:20:43=35,358 
89 PORRui CostaESPCaisse d´Epargne05:13:05  +  00:20:43=35,358 
90 BELMario AertsBELOmega Pharma - Lotto05:13:05  +  00:20:43=35,358 
91 ITARinaldo NocentiniFRAAg2r La Mondiale05:14:22  +  00:22:00=35,214 
92 FRABenoit VaugrenardFRAFrancaise Des Jeux05:15:05  +  00:22:43=35,134 
93 SLOGrega BoleITALampre-Farnese Vini05:16:29  +  00:24:07=34,978 
94 SLOSimon SpilakITALampre-Farnese Vini05:16:29  +  00:24:07=34,978 
95 FRAMatthieu LadagnousFRAFrancaise Des Jeux05:16:29  +  00:24:07=34,978 
96 BLRAliaksandr KuchynskiITALiquigas-Doimo05:16:29  +  00:24:07=34,978 
97 ESPJesus  HernandezKAZAstana Pro Team05:16:29  +  00:24:07=34,978 
98 ESPJosé BenitezESPFooton-Servetto05:16:29  +  00:24:07=34,978 
99 NEDLars BoomNLDRabobank05:16:29  +  00:24:07=34,978 
100 GERChristian KneesDEUTeam Milram05:16:29  +  00:24:07=34,978 
101 ESPImanol ErvitiESPCaisse d´Epargne05:16:29  +  00:24:07=34,978 
102 FRAThomas VoecklerFRABbox Bouygues Telecom05:16:32  +  00:24:10=34,973 
103 JPNYukiya ArashiroFRABbox Bouygues Telecom05:16:32  +  00:24:10=34,973 
104 GERLinus GerdemannDEUTeam Milram05:16:32  +  00:24:10=34,973 
105 ESPOscar FreireNLDRabobank05:16:32  +  00:24:10=34,973 
106 NEDMartijn MaaskantUSAGarmin-Transitions05:21:03  +  00:28:41=34,481 
107 SUIGregory RastUSATeam Radio Shack05:21:03  +  00:28:41=34,481 
108 ITAMauro Da DaltoITALampre-Farnese Vini05:21:03  +  00:28:41=34,481 
109 FRAMaxime BouetFRAAg2r La Mondiale05:21:03  +  00:28:41=34,481 
110 FRAAnthony GeslinFRAFrancaise Des Jeux05:21:03  +  00:28:41=34,481 
111 ITAMauro SantambrogioUSABMC Racing Team05:21:31  +  00:29:09=34,431 
112 ITAAlessandro BallanUSABMC Racing Team05:21:31  +  00:29:09=34,431 
113 NEDKarsten KroonUSABMC Racing Team05:21:31  +  00:29:09=34,431 
114 UKRYaroslav PopovychUSATeam Radio Shack05:22:35  +  00:30:13=34,317 
115 FRADamien MonierFRACofidis Le Credit En Ligne05:26:57  +  00:34:35=33,858 
116 MLTDavid MillarUSAGarmin-Transitions05:28:41  +  00:36:19=33,680 
117 AUSWesley SulzbergerFRAFrancaise Des Jeux05:29:18  +  00:36:56=33,617 
118 ARGJuan Antonio FlechaGBRSky Procycling05:29:18  +  00:36:56=33,617 
119 MDAAlexandr PliuschinRUSTeam Katusha05:29:18  +  00:36:56=33,617 
120 AUTBernhard EiselUSATeam Columbia-HTC05:29:18  +  00:36:56=33,617 
121 CANMichael BarryGBRSky Procycling05:29:18  +  00:36:56=33,617 
122 ITAAlessandro PetacchiITALampre-Farnese Vini05:29:18  +  00:36:56=33,617 
123 ESPBenjamin NovalKAZAstana Pro Team05:29:18  +  00:36:56=33,617 
124 FRASébastien TurgotFRABbox Bouygues Telecom05:29:18  +  00:36:56=33,617 
125 ESPIban MayozESPFooton-Servetto05:29:18  +  00:36:56=33,617 
126 FRASébastien MinardFRACofidis Le Credit En Ligne05:29:18  +  00:36:56=33,617 
127 GERBert GrabschUSATeam Columbia-HTC05:29:18  +  00:36:56=33,617 
128 RUSSerguei IvanovRUSTeam Katusha05:29:18  +  00:36:56=33,617 
129 ESPRuben PerezESPEuskaltel - Euskadi05:29:18  +  00:36:56=33,617 
130 SUISteve MorabitoUSABMC Racing Team05:29:18  +  00:36:56=33,617 
131 ESPIńaki Isasi FloresESPEuskaltel - Euskadi05:29:18  +  00:36:56=33,617 
132 ESPAlan PerezESPEuskaltel - Euskadi05:29:18  +  00:36:56=33,617 
133 GERJens VoigtDNKTeam Saxo Bank05:29:18  +  00:36:56=33,617 
134 AUSLuke RobertsDEUTeam Milram05:29:18  +  00:36:56=33,617 
135 ITAFrancesco BellottiITALiquigas-Doimo05:29:18  +  00:36:56=33,617 
136 AUSBrett LancasterCHECervelo Test Team05:29:18  +  00:36:56=33,617 
137 DENBrian VandborgITALiquigas-Doimo05:29:18  +  00:36:56=33,617 
138 ITAAdriano MaloriITALampre-Farnese Vini05:29:18  +  00:36:56=33,617 
139 ITAManuel QuinziatoITALiquigas-Doimo05:29:18  +  00:36:56=33,617 
140 ITAEros CapecchiESPFooton-Servetto05:29:18  +  00:36:56=33,617 
141 NEDMaarten TjallingiiNLDRabobank05:29:18  +  00:36:56=33,617 
142 ENGDaniel LloydCHECervelo Test Team05:29:18  +  00:36:56=33,617 
143 FRALloyd MondoryFRAAg2r La Mondiale05:29:18  +  00:36:56=33,617 
144 FRADimitri ChampionFRAAg2r La Mondiale05:29:18  +  00:36:56=33,617 
145 BELMaarten WynantsBELQuick Step05:29:18  +  00:36:56=33,617 
146 ITADaniel OssITALiquigas-Doimo05:29:18  +  00:36:56=33,617 
147 KAZDmitriy MuravyevUSATeam Radio Shack05:29:18  +  00:36:56=33,617 
148 BELDries DevenynsBELQuick Step05:29:18  +  00:36:56=33,617 
149 USABrent BookwalterUSABMC Racing Team05:29:18  +  00:36:56=33,617 
150 URSIgnatas KonovalovasCHECervelo Test Team05:29:18  +  00:36:56=33,617 
151 ITAMirco LorenzettoITALampre-Farnese Vini05:29:18  +  00:36:56=33,617 
152 GERFabian WegmannDEUTeam Milram05:29:18  +  00:36:56=33,617 
153 UKRAndriy GrivkoKAZAstana Pro Team05:29:18  +  00:36:56=33,617 
154 AUSRobbie McEwenRUSTeam Katusha05:29:18  +  00:36:56=33,617 
155 BELJürgen RoelandtsBELOmega Pharma - Lotto05:29:18  +  00:36:56=33,617 
156 GERDanilo HondoITALampre-Farnese Vini05:29:18  +  00:36:56=33,617 
157 GERMarcus BurghardtUSABMC Racing Team05:29:18  +  00:36:56=33,617 
158 ITAFrancesco RedaBELQuick Step05:29:18  +  00:36:56=33,617 
159 NZLJulian DeanUSAGarmin-Transitions05:29:18  +  00:36:56=33,617 
160 GERTony MartinUSATeam Columbia-HTC05:29:18  +  00:36:56=33,617 
161 IOMMark CavendishUSATeam Columbia-HTC05:29:18  +  00:36:56=33,617 
162 NEDBram TankinkNLDRabobank05:29:18  +  00:36:56=33,617 
163 DENNicki SřrensenDNKTeam Saxo Bank05:29:18  +  00:36:56=33,617 
164 AUSStuart O'GradyDNKTeam Saxo Bank05:29:18  +  00:36:56=33,617 
165 NOREdvald Boasson HagenGBRSky Procycling05:29:18  +  00:36:56=33,617 
166 NORThor HushovdCHECervelo Test Team05:29:18  +  00:36:56=33,617 
167 SUIFabian CancellaraDNKTeam Saxo Bank05:29:18  +  00:36:56=33,617 
168 ENGStephen CummingsGBRSky Procycling05:29:18  +  00:36:56=33,617 
169 KAZMaxim IglinskiyKAZAstana Pro Team05:29:18  +  00:36:56=33,617 
170 DENMatti BreschelDNKTeam Saxo Bank05:29:18  +  00:36:56=33,617 
171 GERAndreas KlierCHECervelo Test Team05:29:18  +  00:36:56=33,617 
172 CANJeremy HuntCHECervelo Test Team05:29:18  +  00:36:56=33,617 
173 FRAAnthony RouxFRAFrancaise Des Jeux05:29:18  +  00:36:56=33,617 
174 GERGerald CiolekDEUTeam Milram05:29:18  +  00:36:56=33,617 
175 FRAJérémy RoyFRAFrancaise Des Jeux05:29:31  +  00:37:09=33,595 


Todays birthdays.

1887  Marcel Godivier
1895  Louis Thuayre
1896  Léon Devos
1932  Aniceto Utset
1935  Willy Altig
1939  Sebastián Elorza
1941  René Binggeli
1948  Gerard Moneyron
1953  Patrocinio Jiménez
1954  Pierre Bazzo
1955  Serge Beucherie
1967  Antonio Politano
1969  Sergio Barbero
1977  Luca Paolini
1980  Gregory Rast
1981  Christophe Riblon
1985  Sebastian Langeveld
1990  Johan Esteban Chaves




Visits: